TimePST,TemperatureF,Dew PointF,Humidity,Sea Level PressureIn,VisibilityMPH,Wind Direction,Wind SpeedMPH,Gust SpeedMPH,PrecipitationIn,Events,Conditions,WindDirDegrees,DateUTC
12:55 AM,45.0,27.0,49,29.93,10.0,NE,12.7,-,N/A,,Mostly Cloudy,40,2013-11-03 07:55:00
1:55 AM,43.0,25.0,49,29.93,10.0,North,13.8,-,N/A,,Mostly Cloudy,10,2013-11-03 08:55:00
1:55 AM,42.1,24.1,49,29.93,10.0,North,10.4,-,N/A,,Mostly Cloudy,10,2013-11-03 09:55:00
2:55 AM,39.9,24.1,53,29.94,10.0,North,11.5,-,N/A,,Mostly Cloudy,350,2013-11-03 10:55:00
3:55 AM,39.0,23.0,53,29.97,10.0,NNW,10.4,-,N/A,,Mostly Cloudy,340,2013-11-03 11:55:00
4:55 AM,39.0,21.0,49,29.99,10.0,North,6.9,-,N/A,,Mostly Cloudy,350,2013-11-03 12:55:00
5:55 AM,39.0,19.9,46,30.00,10.0,North,8.1,-,N/A,,Mostly Cloudy,350,2013-11-03 13:55:00
6:55 AM,37.9,19.9,48,30.03,10.0,North,8.1,-,N/A,,Mostly Cloudy,360,2013-11-03 14:55:00
7:55 AM,37.9,21.0,51,30.04,10.0,NNE,5.8,-,N/A,,Mostly Cloudy,30,2013-11-03 15:55:00
8:55 AM,41.0,21.9,47,30.03,10.0,NE,6.9,-,N/A,,Scattered Clouds,40,2013-11-03 16:55:00
9:55 AM,42.1,21.9,45,30.04,10.0,Variable,4.6,-,N/A,,Mostly Cloudy,0,2013-11-03 17:55:00
10:55 AM,45.0,18.0,34,30.05,10.0,NNW,8.1,-,N/A,,Mostly Cloudy,340,2013-11-03 18:55:00
11:55 AM,46.0,17.1,31,30.04,10.0,NNE,6.9,-,N/A,,Mostly Cloudy,20,2013-11-03 19:55:00
12:55 PM,45.0,17.1,33,30.01,10.0,Calm,Calm,-,N/A,,Mostly Cloudy,0,2013-11-03 20:55:00
1:55 PM,46.9,17.1,30,29.99,10.0,Calm,Calm,-,N/A,,Mostly Cloudy,0,2013-11-03 21:55:00
2:55 PM,46.9,17.1,30,30.00,10.0,NNE,4.6,-,N/A,,Mostly Cloudy,20,2013-11-03 22:55:00
3:55 PM,46.0,15.1,29,29.98,10.0,NE,9.2,-,N/A,,Mostly Cloudy,40,2013-11-03 23:55:00
4:55 PM,44.1,14.0,30,29.97,10.0,NE,10.4,-,N/A,,Overcast,40,2013-11-04 00:55:00
5:55 PM,42.1,15.1,34,29.97,10.0,North,8.1,-,N/A,,Overcast,10,2013-11-04 01:55:00
6:55 PM,42.1,17.1,37,29.98,10.0,North,5.8,-,N/A,,Overcast,360,2013-11-04 02:55:00
7:55 PM,41.0,17.1,38,29.98,10.0,NNE,4.6,-,N/A,,Overcast,30,2013-11-04 03:55:00
8:55 PM,42.1,16.0,35,29.98,10.0,Calm,Calm,-,N/A,,Overcast,0,2013-11-04 04:55:00
9:55 PM,41.0,14.0,33,29.99,10.0,East,3.5,-,N/A,,Overcast,90,2013-11-04 05:55:00
10:55 PM,41.0,15.1,35,29.98,10.0,Calm,Calm,-,N/A,,Overcast,0,2013-11-04 06:55:00